"Pseudo-MPEC" for P20SzGs

Created 2019 Oct 21 2:07:36 UT using Find_Orb

Click here for an explanation of pseudo-MPECs

 
 Astrometry: 
     P20SzGs  C2019 10 08sbAstrometryptdBq`@ZuNQXm9-g[HcP:2xX_J\HCE=c`5IZIDbUF52
     P20SzGs  C2019 10 08#Undv)2`Y'EYt*)1,LVJDsd3vE6@-kw=9;9wNSVUoV4D`r/GD?qBF52
     P20SzGs  C2019 10 088\U4[l.Bredacted;7`9Q!SNO`^^0:M.UE=C\MfNcAbDgJA%0Z02F52
     P20SzGs  C2019 10 08g^;(Bl7MlLqHo-u[[_WC]DmX#X93jZq+n_._f.+8YS.fNCGgD%ylF52
     P20SzGs  C2019 10 09]JP6neay'/96n%xyXRD[IlJj'I\?K`I;T4#.2G,'L*Zjb3paH@SJL01
     P20SzGs  C2019 10 09Dw,GZKr@thOck]%W*18Vos!X`Ks.EL2i#j]C=Xr+a[PD:-N%^ts9L01
     P20SzGs  C2019 10 09,3e%ud+-./xF#;XuF?0vcJ^kO^P$1C0D.jssuZ'*`Y+uc9A)$rFNL01
     P20SzGs  C2019 10 09V8X:B\%el#N\v!2V\pq;!56?(2H,*n5``mT(O3Hu6v22wxBYn9tpL01
     P20SzGs  C2019 10 09(151w7='_,Ayu((bP$xjd#h,6\1,(vu9sf1T=uqJby29W0sGtwiZL01
     P20SzGs  C2019 10 093ZxfcNV!(gUb_PhVQU2Dgv=4JnX+\^e4J(clickc@_dI@1?JTO%+L01
     P20SzGs  C2019 10 09.34260 03 06 15.19 -06 31 57.7    ~A99M 19.0 GVNEOCPI52
     P20SzGs  C2019 10 09.35139 03 06 14.97 -06 31 55.2    ~A99M 19.4 GVNEOCPI52
     P20SzGs  C2019 10 09.36425 03 06 14.70 -06 31 52.5    ~A99M 19.2 GVNEOCPI52
     P20SzGs  C2019 10 09.37427 03 06 14.43 -06 31 49.4    ~A99M       VNEOCPI52
     P20SzGs 1C2019 10 09+7)rhF`8orCQVce[E(!^m$egj^kD4p)sb2EP2_h'Xf24OxItZKYMQ62
     P20SzGs 1C2019 10 09)xns\`qJ0TCrfBHy(kZ`WmN,ExZ%#m-`kUZ(o+R`Pxr!%Tl::I-CQ62
     P20SzGs 1C2019 10 09/,ui1x]r8(NrdCXq#GDsW$(IrvLY?[e:$Pl;I+xQWbtiYx-ZT,.1Q62
     P20SzGs 8C2019 10 09d64\f`;,uZy0Go3,md=U_-i7nIE10GDT4^otY)N2:u[M[N8y^Q,M094
     P20SzGs 8C2019 10 09BvgU.QM/u(w3QqF[Xuun1Bn0ypSAJ*bYl9-!h5S!f$GG$ZvTNyeJ094
     P20SzGs 8C2019 10 09mu+mE^hoBQO4D\j3Kwhk!69JiZRhE6t-]?FKhBV=WUS!h$xVpyFc094
     P20SzGs KC2019 10 09Yp,9Hu8%eff+2'tU8kfmEA[#skMLlj,wyeL8Dk$0mdCt8Rf]rY\9Z84
     P20SzGs KC2019 10 09n`2:g^,2jH/jg5\1Z:vM$s!pKhTCG6\pPH0,PQd9u,(1=bK9i*fjZ84
     P20SzGs KC2019 10 0972T44EJ*ur:mY0w0Nj_ZrpR4AE#K2HIZ48HYbR/[F:0T$_D=sq3KZ84
     P20SzGs KC2019 10 09+.Kc4]1:`E(xnaKB!'615nJZ1D+xIj,tSt1hhererqp231f8-g?CZ84
     P20SzGs KC2019 10 10SU7WiUN%-SL[eDJ]bA-N.?;FL\?JiN;GqEr[%5DaThekQ,xY:qt:A77
     P20SzGs KC2019 10 10x1Y.=G%5$%._CgNg((/mM:SLtGwHaOYAQ4)foro5b^9AlSd4'+doA77
     P20SzGs KC2019 10 100k/=q)eoRLDeGPy*Eim](4P5S=8Z[-DLqbDMm,SkL!A%+@nR$QA.A77
     P20SzGs KC2019 10 10.24497 03 05 58.26 -06 28 25.6    ~AA77 19.2 RoNEOCP691
     P20SzGs KC2019 10 10.25587 03 05 58.01 -06 28 23.1    ~AA77 19.1 RoNEOCP691
     P20SzGs KC2019 10 10.26677 03 05 57.84 -06 28 20.7    ~AA77 19.1 RoNEOCP691
     P20SzGs KC2019 10 11fNL]f`rN+EEGCyNj`'[f(#khC:t!k;/Wi5;0v38'27(/6VyP][@8K87
     P20SzGs KC2019 10 11.b5H\7mxJA6?+2-Cms4u)KQ\Uhqr./ZpE\-6O_6SMf8Zc_-xZ6#eK87
     P20SzGs KC2019 10 11sXTDPTdgSFtCOYY]9`0%RDC8QALBD8ol9-bmKOrIC!\W^vqHUIlxK87
     P20SzGs 9C2019 10 11;D?hf=Z5tN'hvRv$AtZ$QrA/%3.A1'cQyCfsI;Tkk`/g?Q;y/Fq/G40
     P20SzGs 9C2019 10 11HlrNZZokb2w;Uc4XXh#I(3kG`'-L6Ub)xCRD+As^4+=V/@^ve`nLG40
     P20SzGs  C2019 10 11.26603 03 05 37.19 -06 24 16.3    ~AB77 19.8 GVNEOCPI52
     P20SzGs  C2019 10 11.27298 03 05 37.08 -06 24 13.8    ~AB77 19.6 GVNEOCPI52
     P20SzGs  C2019 10 11.28051 03 05 36.98 -06 24 11.2    ~AB77 19.1 GVNEOCPI52
     P20SzGs  C2019 10 11.37268 03 05 34.75 -06 23 48.6    ~ABCq 19.2 GVNEOCPG96
     P20SzGs  C2019 10 11.37825 03 05 34.61 -06 23 47.4    ~ABCq 19.2 GVNEOCPG96
     P20SzGs  C2019 10 11.38383 03 05 34.47 -06 23 45.6    ~ABCq 19.2 GVNEOCPG96
     P20SzGs  C2019 10 11.38942 03 05 34.34 -06 23 44.2    ~ABCq 19.1 GVNEOCPG96
     P20SzGs KC2019 10 13`uY2eh+Mr]p$'UCHUp-CV$S?x8odRcj88I%#kd*=GUBOd?Qti8qE585
     P20SzGs KC2019 10 13Kd;=3YovIa4L@k=*P[R_W[Ivfwe%oeu@)j]=I,mLm\x4'prW+Jpb585
     P20SzGs KC2019 10 16_t8LqW+fB`KwCN)j!QLS?T#7e.\p!0.''ffHbGbhr`eFC0!N\/mjL01
     P20SzGs KC2019 10 162_VA!lkV8]@$_\%H%wbDx_TS4kb[[u@kpu]aR9;DQ56r(^QYuW`*L01
     P20SzGs KC2019 10 16eNuM/V*Hr%_41SOU*eXt7`3B?3qQM!p!vC1-o/rtn`,!6a_Us4FYL01
     P20SzGs KC2019 10 16GhS4_^baTc7explanationQNxQC-$Vd$1T?q/9+UL,CY@]q(xKFiL01
     P20SzGs KC2019 10 17.51000 03 02 49.55 -05 53 43.2    ~AHD7 19.6 RoNEOCP291
     P20SzGs KC2019 10 17.51601 03 02 49.40 -05 53 41.3    ~AHD7 19.2 RoNEOCP291
     P20SzGs KC2019 10 19.33790 03 01 49.31 -05 43 03.1    ~AJ8q 18.4 RoNEOCP691
     P20SzGs KC2019 10 19.34378 03 01 49.15 -05 43 01.1    ~AJ8q 18.5 RoNEOCP691
     P20SzGs KC2019 10 19.34966 03 01 48.92 -05 42 58.9    ~AJ8q 18.8 RoNEOCP691
     P20SzGs  C2019 10 19Wth.ru2j+Qn=+ghosJ-%H@y_8(]=NLtn)tDodO2l,4!Z-%Af'bffF51
     P20SzGs  C2019 10 19THIqPPFRD)'hxkSXd9Xy:l`s4M!Pmg*;kUkA!we*$T]JL6(6O:iCF51
     P20SzGs  C2019 10 19,Pp@WqpJ9T?*00K1-6pfDS6pCaL2Poe977/;PZZND_9,Ocrtp.D9F51
     P20SzGs KC2019 10 19+e8\40TITE3IuQ*/YNHLZw6Rq,:pt!?f]TwTbbag16;yQDG$XDneK88
     P20SzGs KC2019 10 19p%fTg@@%Nq3jLuQ9,A2@cgAX15C[j#GjWidQHl#[\OVgh.rNdro_K88
     P20SzGs KC2019 10 19+'uNe+d/b-NnU@q6WFlxhbai[5--_l8fAA\,LFpi-D]b.ROTxNBaK88
     P20SzGs KC2019 10 195ev$r)ceB)`cfmif=Xt;o6Y#i/1g7.(Ls$PF.ne*wKGcr6P5I$P:K88

Station data:
(094) Crimea-Simeïs  (N44.403089 E33.997400)  Ukraine. 1.0-m Ritchey-Chrétien.
(291) LPL/Spacewatch II  (N31.961669 W111.599905)  US/Arizona.  Observers J.
   V. Scotti, R. S. McMillan. 1.8-m f/2.7 reflector + CCD.
(585) Kyiv comet station  (N50.297989 E30.524620)  Ukraine.
(691) Steward Observatory, Kitt Peak - Spacewatch  (N31.962174 W111.600327)
   US/Arizona.  Observer J. V. Scotti. 0.9-m f/3 reflector + CCD.
(A77) Observatoire Chante-Perdrix, Dauban  (N43.999665 E5.647500)  France.
   Observers J.-F. Soulier, C. Rinner, F. Kugel, J. Nicolas.
(F51) Pan-STARRS 1, Haleakala  (N20.707235 W156.255910)  US/Hawaii.
   Observers N. Primak, A. Schultz, S. Watters, J. Thiel, T. Goggia. Measurer
   PS1 Science Consortium. 1.8-m Ritchey-Chrétien + CCD.
(F52) Pan-STARRS 2, Haleakala  (N20.707384 W156.255910)  US/Hawaii. 1.8-m
   Ritchey-Chrétien + CCD.
(G40) Slooh.com Canary Islands Observatory  (N28.299720 W16.508260)  Canary
   Islands (Spain).  Observers G. Gašparović, Y. Chen. 0.43-m f/6.8 Corrected
   Dall-Kirkham + CCD.
(G96) Mt. Lemmon Survey  (N32.442754 W110.788720)  US/Arizona.  Observers T.
   A. Pruyne, B. M. Africano, E. J. Christensen, G. A. Farneth, D. C. Fuls,
   A. R. Gibbs, A. D. Grauer, H. Groeller, J. A. Johnson, R. A. Kowalski, S.
   M. Larson, G. J. Leonard, D. Rankin, R. L. Seaman, F. C. Shelly. 1.5-m
   reflector + 10K CCD.
(I52) Steward Observatory, Mt. Lemmon Station  (N32.442547 W110.788920)
   US/Arizona.  Observers T. A. Pruyne, B. M. Africano, E. J. Christensen, G.
   A. Farneth, D. C. Fuls, A. R. Gibbs, A. D. Grauer, H. Groeller, J. A.
   Johnson, R. A. Kowalski, S. M. Larson, G. J. Leonard, D. Rankin, R. L.
   Seaman, F. C. Shelly. 1.0-m reflector + CCD.
(K87) Dettelbach Vineyard Observatory  (N49.807693 E10.170110)  Germany.
(K88) GINOP-KHK, Piszkéstető  (N47.917622 E19.893600)  Hungary.  Observer K.
   Sárneczky. 0.60-m Schmidt + CCD.
(L01) Višnjan Observatory, Tičan  (N45.290900 E13.749300)  Croatia.
   Observers K. Korlević, E. Pettarin. Measurer E. Pettarin. 1.0-m f/2.9
   reflector + CCD.
(Q62) iTelescope Observatory, Siding Spring  (S31.273289 E149.064420)
   Australia/NSW. 0.50-m f/6.8 astrograph + CCD + focal reducer, 0.70-m f/6.6
   astrograph + CCD.
(Z84) Calar Alto-Schmidt  (N37.224049 W2.548210)  Spain.

Orbital elements:  P20SzGs
   Perihelion 2019 Nov 8.929846 +/- 2.93 TT = 22:18:58 (JD 2458796.429846)
Epoch 2019 Oct 19.0 TT = JDT 2458775.5   Ju: 0.6672           AutoNEOCP
M 358.38046805 +/- 0.19             (J2000 ecliptic)
n   0.07737906 +/- 0.00107          Peri.  329.50106 +/- 1.4
a   5.45406610 +/- 0.0501           Node    71.20936 +/- 0.24
e   0.6235140 +/- 0.00312           Incl.   18.75954 +/- 0.14
P  12.74                   H 17.0   G  0.15   U  8.2  
q 2.05337924 +/- 0.00198    Q 8.85475295 +/- 0.101
From 60 observations 2019 Oct. 8-19; mean residual 0".59
Residuals in arcseconds: 
191008 F52  .23+  .10-    191009 Z84  .04+  .16-    191011 G96  .15+  .18-    
191008 F52  .33+  .09-    191009 Z84  .16+  .15-    191011 G96  .24+  .20-    
191008 F52  .44+  .15-    191009 Z84  .15+  .16-    191013 585  .85+  2.0+    
191008 F52  .30+  .15-    191009 Z84  .15+  .36-    191013 585  1.7+  2.1+    
191009 L01  .01+  .40-    191010 A77  .60+  .13+    191016 L01  .86+  .28-    
191009 L01  .39+  .12+    191010 A77  1.0-  .57+    191016 L01  .18+  .33-    
191009 L01  .64+  .61-    191010 A77  .86-  .42+    191016 L01  .71+  .02+    
191009 L01  .35+  .06-    191010 691  1.4-  .33+    191016 L01  .89+  .09-    
191009 L01  .01-  .24-    191010 691  1.7-  .26+    191017 291  .81-  .07+    
191009 L01  .77+  .46-    191010 691  .69-  .08+    191017 291  .05-  .08-    
191009 I52  .42+  .07-    191011 K87  .38+  .10+    191019 691  1.6-  .09+    
191009 I52  .16-  .43+    191011 K87  .26+  .08-    191019 691  .72-  .05-    
191009 I52  .21-  .19+    191011 K87  .29-  .56-    191019 691  .88-  .01+    
191009 I52  1.1-  1.0+    191011 G40  .09-  .24-    191019 F51  .50+  .32-    
191009 Q62  .06-  .32+    191011 G40  .06-  .40-    191019 F51  .51+  .41-    
191009 Q62  .27-  .11-    191011 I52  1.5-  1.3-    191019 F51  .64+  .29-    
191009 Q62  .03-  .25-    191011 I52  .75-  .51-    191019 K88  .06-  .14+    
191009 094  .41+  .17-    191011 I52  .41+  .21+    191019 K88  .13+  .03+    
191009 094  .88+  .13-    191011 G96  .27+  .36-    191019 K88  .16+  .08-    
191009 094  .15-  .07-    191011 G96  .21+  .57-    191019 K88  .10-  .21+    

Ephemerides (geocentric):
Date (UTC) HH   RA              Dec         delta   r     elong  mag " sig PA
---- -- -- --  -------------   -----------  ------ ------ -----  --- ---- ---
2019 10 21 02  03 00 47.015   -05 31 59.83  1.1176 2.0611 154.4 19.5 .296 147
2019 10 21 03  03 00 45.476   -05 31 43.53  1.1175 2.0611 154.5 19.5 .305 147
2019 10 21 04  03 00 43.934   -05 31 27.21  1.1174 2.0611 154.5 19.5 .314 147
2019 10 21 05  03 00 42.391   -05 31 10.86  1.1172 2.0610 154.5 19.5 .323 146
